Hourly Data Report for October 29, 2013

All times are specified in Local Standard Time (LST). Add 1 hour to adjust for Daylight Saving Time where and when it is observed.

GJOA HAVEN A
NUNAVUT

68°38'08.000" N
95°51'01.000" W
46.90 m
2302337
71597
YHK

Download Data

Hourly Data (October 2013)
Hourly Data Report for October 29, 2013
Temp Definition
°C
Dew Point Temp Definition
°C
Rel Hum Definition
%
Wind Dir Definition
10's deg

Wind Spd Definition
km/h
Visibility Definition
km
Stn Press Definition
kPa
Hmdx Definition


Wind Chill Definition


Weather Definition


TIME
00:00 Legend Double Dagger -21.5 -23.5 84 35 21 16.1 100.68   -33 LegendNANA
01:00 Legend Double Dagger -21.3 -23.3 84 33 21 16.1 100.68   -32 LegendNANA
02:00 Legend Double Dagger -20.8 -22.7 85 31 17 14.5 100.68   -31 LegendNANA
03:00 Legend Double Dagger -20.8 -22.8 84 33 18 8.1 100.67   -31 LegendNANA
04:00 Legend Double Dagger -21.0 -22.9 85 33 11 16.1 100.68   -29 LegendNANA
05:00 Legend Double Dagger -20.4 -22.3 85 34 18 16.1 100.65   -30 LegendNANA
06:00 Legend Double Dagger -21.4 -23.4 84 35 17 16.1 100.62   -31 LegendNANA
07:00 Legend Double Dagger -21.6 -23.6 84 36 21 16.1 100.57   -33 LegendNANA
08:00 Legend Double Dagger -22.1 -24.1 84 35 15 16.1 100.56   -32 LegendNANA
09:00 Legend Double Dagger -21.0 -23.0 84 34 17 11.3 100.56   -31 LegendNANA
10:00 Legend Double Dagger -20.4 -22.4 85 33 11 14.5 100.54   -28 LegendNANA
11:00 Legend Double Dagger -19.5 -21.4 85 33 8 12.9 100.52   -26 LegendNANA
12:00 Legend Double Dagger -19.1 -20.9 86 32 13 16.1 100.57   -27 LegendNANA
13:00 Legend Double Dagger -20.6 -22.6 84 34 11 16.1 100.54   -28 LegendNANA
14:00 Legend Double Dagger -20.4 -22.1 86 1 11 16.1 100.53   -28 LegendNANA
15:00 Legend Double Dagger -19.4 -21.2 86 2 9 11.3 100.51   -26 LegendNANA
16:00 Legend Double Dagger -20.6 -22.8 83 32 9 16.1 100.56   -27 LegendNANA
17:00 Legend Double Dagger -21.5 -23.4 85 6 8 14.5 100.49   -28 LegendNANA
18:00 Legend Double Dagger -16.6 -18.0 89 10 5 12.9 100.45   -20 LegendNANA
19:00 Legend Double Dagger -15.2 -16.6 89 15 9 16.1 100.40   -21 LegendNANA
20:00 Legend Double Dagger -15.3 -16.6 90 15 13 16.1 100.36   -23 LegendNANA
21:00 Legend Double Dagger -14.6 -15.9 90 17 17 11.3 100.30   -23 LegendNANA
22:00 Legend Double Dagger -15.3 -16.7 89 17 15 6.4 100.30   -23 LegendNANA
23:00 Legend Double Dagger -15.6 -17.0 89 16 22 8.1 100.28   -25 LegendNANA

Notes on Data Quality.

Legend

  • E = Estimated
  • M = Missing
  • NA = Not Available
  • ‡ = Partner data that is not subject to review by the National Climate Archives
Date modified: